Location: *
(43.4667°N, 11.6833°E)
Time: 23:18:18
(UTC+00:00)

Meteor 2-11 Rocket - Pass Details

Date: 19 July 2019
Orbit: 940 x 956 km, 82.5° (Epoch: 19 August)

Event Time Altitude Azimuth Distance (km) Brightness Sun altitude
Exits shadow 20:54:59 16° 191° (S) 2,273 6.0 -17.7°
Maximum altitude 21:00:02 83° 279° (W) 955 4.5 -18.2°
Drops below altitude 10° 21:06:10 10° 7° (N) 2,673 7.5 -18.8°
Sets 21:08:40 0° 8° (N) 3,624 8.3 -19.1°
